Simultaneous Nadir Overpasses (SNOs) Predictions

Prediction of SNOs between LANDSAT-8 and METOP-A Satellite Orbit:

Table of predicted SNOs for the next 14.0 days since TLE Epoch: 1/26/2014
Index Date (LANDSAT-8) Time (LANDSAT-8) Lat,Lon (LANDSAT-8) SZA (LANDSAT-8 ) Date (METOP-A) Time (METOP-A) Lat,Lon (METOP-A) SZA (METOP-A ) Distance(km) Time Diff (sec)
1 01/27/2014 13:00:51 -79.73,-169.70 81.20 01/27/2014 12:59:41 -80.05,-172.64 81.09 67.42 70
2 01/27/2014 13:49:30 81.17, 13.01 101.24 01/27/2014 13:49:29 81.17, 12.85 101.22 2.81 1
3 01/27/2014 14:38:55 -81.21,-178.69 78.68 01/27/2014 14:40:06 -81.21,-178.52 78.64 2.85 71
4 01/30/2014 08:34:18 -81.16, -88.35 79.54 01/30/2014 08:33:09 -81.16, -88.37 79.57 0.43 69
5 01/30/2014 09:23:43 81.19, 79.74 100.52 01/30/2014 09:23:48 81.18, 79.73 100.52 0.31 5
6 02/02/2014 04:08:30 -81.17, -21.73 80.31 02/02/2014 04:07:28 -81.16, -21.89 80.36 2.83 62
7 02/02/2014 04:57:56 81.18, 145.98 99.69 02/02/2014 04:58:08 81.17, 145.81 99.68 3.00 12
8 02/04/2014 23:42:43 -81.17, 44.77 81.14 02/04/2014 23:41:47 -81.18, 44.93 81.15 2.76 56
9 02/05/2014 00:32:09 81.18,-147.53 98.86 02/05/2014 00:32:27 81.19,-147.41 98.89 2.26 18
10 02/07/2014 19:16:56 -81.17, 111.14 82.02 02/07/2014 19:16:07 -81.17, 111.31 82.02 3.03 49




NCC Satellite Simultaneous Nadir Overpasses (SNOs) Prediction Service
